Time,TemperatureF,DewpointF,PressureIn,WindDirection,WindDirectionDegrees,WindSpeedMPH,WindSpeedGustMPH,Humidity,HourlyPrecipIn,Conditions,Clouds,dailyrainin,SoftwareType,DateUTC
2013-01-26 00:12:00,14.0,-99.9,30.05,East,84,4.0,5.0,-999,-99.99,,,-99.99,,2013-01-26 05:12:00,
2013-01-26 00:42:00,14.0,-99.9,30.06,ESE,102,4.0,6.0,-999,-99.99,,,-99.99,,2013-01-26 05:42:00,
2013-01-26 01:12:00,13.0,-99.9,30.06,ESE,113,4.0,7.0,-999,-99.99,,,-99.99,,2013-01-26 06:12:00,
2013-01-26 02:12:00,13.0,-99.9,30.07,East,80,3.0,5.0,-999,-99.99,,,-99.99,,2013-01-26 07:12:00,
2013-01-26 02:42:00,13.0,-99.9,30.08,NE,40,2.0,3.0,-999,-99.99,,,-99.99,,2013-01-26 07:42:00,
2013-01-26 03:42:00,13.0,-99.9,30.10,ENE,64,2.0,4.0,-999,-99.99,,,-99.99,,2013-01-26 08:42:00,
2013-01-26 04:11:00,13.0,-99.9,30.11,NNE,24,2.0,2.0,-999,-99.99,,,-99.99,,2013-01-26 09:11:00,
2013-01-26 05:12:00,12.0,-99.9,30.13,NNW,327,3.0,3.0,-999,-99.99,,,-99.99,,2013-01-26 10:12:00,
2013-01-26 05:43:00,11.0,-99.9,30.14,North,7,2.0,3.0,-999,-99.99,,,-99.99,,2013-01-26 10:43:00,
2013-01-26 06:12:00,10.0,-99.9,30.15,North,358,2.0,2.0,-999,-99.99,,,-99.99,,2013-01-26 11:12:00,
2013-01-26 06:42:00,8.0,-99.9,30.16,NW,316,2.0,2.0,-999,-99.99,,,-99.99,,2013-01-26 11:42:00,
2013-01-26 07:12:00,8.0,-99.9,30.16,NW,306,2.0,2.0,-999,-99.99,,,-99.99,,2013-01-26 12:12:00,
2013-01-26 07:42:00,4.0,-99.9,30.18,NW,305,2.0,3.0,-999,-99.99,,,-99.99,,2013-01-26 12:42:00,
2013-01-26 08:12:00,2.0,-99.9,30.19,NNW,342,2.0,2.0,-999,-99.99,,,-99.99,,2013-01-26 13:12:00,
2013-01-26 09:12:00,1.0,-99.9,30.22,WNW,295,3.0,3.0,-999,-99.99,,,-99.99,,2013-01-26 14:12:00,
2013-01-26 09:43:00,2.0,-99.9,30.23,WNW,299,1.0,2.0,-999,-99.99,,,-99.99,,2013-01-26 14:43:00,
2013-01-26 10:43:00,6.0,-99.9,30.27,NW,319,4.0,4.0,-999,-99.99,,,-99.99,,2013-01-26 15:43:00,
2013-01-26 11:13:00,9.0,-99.9,30.29,NW,322,4.0,5.0,-999,-99.99,,,-99.99,,2013-01-26 16:13:00,
2013-01-26 11:43:00,11.0,-99.9,30.30,NNW,336,5.0,6.0,-999,-99.99,,,-99.99,,2013-01-26 16:43:00,
2013-01-26 12:13:00,13.0,-99.9,30.31,NNW,338,7.0,7.0,-999,-99.99,,,-99.99,,2013-01-26 17:13:00,
2013-01-26 13:12:00,16.0,-99.9,30.31,NW,321,5.0,6.0,-999,-99.99,,,-99.99,,2013-01-26 18:12:00,
2013-01-26 13:42:00,17.0,-99.9,30.30,NW,321,4.0,5.0,-999,-99.99,,,-99.99,,2013-01-26 18:42:00,
2013-01-26 14:43:00,20.0,-99.9,30.32,NW,324,3.0,4.0,-999,-99.99,,,-99.99,,2013-01-26 19:43:00,
2013-01-26 15:12:00,21.0,-99.9,30.32,NW,316,2.0,2.0,-999,-99.99,,,-99.99,,2013-01-26 20:12:00,
2013-01-26 15:42:00,21.0,-99.9,30.33,WNW,290,2.0,3.0,-999,-99.99,,,-99.99,,2013-01-26 20:42:00,
2013-01-26 16:12:00,23.0,-99.9,30.34,SW,224,2.0,2.0,-999,-99.99,,,-99.99,,2013-01-26 21:12:00,
2013-01-26 16:43:00,22.0,-99.9,30.34,WSW,237,1.0,2.0,-999,-99.99,,,-99.99,,2013-01-26 21:43:00,
2013-01-26 17:12:00,23.0,-99.9,30.34,SE,145,1.0,2.0,-999,-99.99,,,-99.99,,2013-01-26 22:12:00,
2013-01-26 17:42:00,18.0,-99.9,30.35,SSE,149,4.0,4.0,-999,-99.99,,,-99.99,,2013-01-26 22:42:00,
2013-01-26 18:12:00,15.0,-99.9,30.35,SSE,148,4.0,5.0,-999,-99.99,,,-99.99,,2013-01-26 23:12:00,
2013-01-26 19:12:00,12.0,-99.9,30.37,South,174,3.0,4.0,-999,-99.99,,,-99.99,,2013-01-27 00:12:00,
2013-01-26 19:42:00,11.0,-99.9,30.37,SSE,160,3.0,4.0,-999,-99.99,,,-99.99,,2013-01-27 00:42:00,
2013-01-26 20:42:00,7.0,-99.9,30.38,SSE,159,6.0,6.0,-999,-99.99,,,-99.99,,2013-01-27 01:42:00,
2013-01-26 21:12:00,6.0,-99.9,30.38,SSE,161,4.0,4.0,-999,-99.99,,,-99.99,,2013-01-27 02:12:00,
2013-01-26 21:42:00,5.0,-99.9,30.38,SSE,154,4.0,4.0,-999,-99.99,,,-99.99,,2013-01-27 02:42:00,
2013-01-26 22:12:00,6.0,-99.9,30.39,South,188,2.0,4.0,-999,-99.99,,,-99.99,,2013-01-27 03:12:00,
2013-01-26 22:42:00,6.0,-99.9,30.39,SSW,192,2.0,2.0,-999,-99.99,,,-99.99,,2013-01-27 03:42:00,
2013-01-26 23:42:00,6.0,-99.9,30.39,ENE,73,0.0,2.0,-999,-99.99,,,-99.99,,2013-01-27 04:42:00,